Weather History for Manistee, MI

Change the Weather History Date:

Friday, April 4, 2014

  Actual Average Record
Temperature  
Mean Temperature 32 °F -  
Max Temperature 37 °F 49 °F 75 °F (1997)
Min Temperature 28 °F 30 °F 11 °F (1954)
Degree Days  
Heating Degree Days 32    
Moisture  
Dew Point 29 °F    
Average Humidity 81    
Maximum Humidity 93    
Minimum Humidity 52    
Precipitation  
Precipitation 0.16 in - - ()
Sea Level Pressure  
Sea Level Pressure 29.57 in    
Wind  
Wind Speed 11 mph (ENE)    
Max Wind Speed 24 mph    
Max Gust Speed 34 mph    
Visibility 6 miles    
Events Thunderstorm    
Averages and records for this station are not official NWS values.
T = Trace of Precipitation, MM = Missing Value Source: NWS Daily Summary

Daily Weather History Graph

Daily Weather History Graph

Search for Another Location

Airport:

Trip Planner

Search our weather history database for the weather conditions in past years. The results will help you decide how hot, cold, wet, or windy it might be!

Date:

Astronomy

Apr. 04, 2014 Rise Set
Actual Time 7:20 AM EDT 8:15 PM EDT
Civil Twilight 6:51 AM EDT 8:45 PM EDT
Nautical Twilight 6:16 AM EDT 9:20 PM EDT
Astronomical Twilight 5:39 AM EDT 9:57 PM EDT
Moon 10:29 AM EDT (4/4) 12:41 AM EDT (4/4)
Length of Visible Light 13h 54m
Length of Day
12h 55m
Waxing Crescent, 25% of the Moon is Illuminated
Apr 4
Waxing Crescent
Apr 7
First Quarter
Apr 15
Full
Apr 22
Last Quarter
Apr 29
New

Hourly Weather History & Observations

Time (EDT) Temp. Windchill Dew Point Humidity Pressure Visibility Wind Dir Wind Speed Gust Speed Precip Events Conditions
12:15 AM 37.4 °F 29.3 °F 21.2 °F 52% 29.83 in 10.0 mi ESE 12.7 mph - N/A   Overcast
12:35 AM 35.6 °F 27.5 °F 21.2 °F 56% 29.81 in 10.0 mi East 11.5 mph 18.4 mph N/A   Overcast
12:55 AM 35.6 °F 27.5 °F 23.0 °F 60% 29.79 in 10.0 mi ESE 11.5 mph 16.1 mph N/A   Overcast
1:15 AM 35.6 °F 28.6 °F 23.0 °F 60% 29.78 in 10.0 mi ESE 9.2 mph - N/A   Overcast
1:35 AM 35.6 °F 26.2 °F 23.0 °F 60% 29.74 in 10.0 mi East 15.0 mph - N/A   Overcast
1:55 AM 35.6 °F 27.1 °F 23.0 °F 60% 29.73 in 10.0 mi ESE 12.7 mph - N/A   Overcast
2:15 AM 35.6 °F 28.0 °F 24.8 °F 65% 29.70 in 10.0 mi East 10.4 mph - N/A   Mostly Cloudy
2:35 AM 35.6 °F 29.2 °F 24.8 °F 65% 29.70 in 10.0 mi ESE 8.1 mph - N/A   Overcast
2:55 AM 37.4 °F 32.1 °F 23.0 °F 56% 29.70 in 10.0 mi ESE 6.9 mph - N/A   Overcast
3:15 AM 37.4 °F 33.8 °F 23.0 °F 56% 29.71 in 10.0 mi SE 4.6 mph - N/A   Overcast
3:35 AM 37.4 °F 32.8 °F 24.8 °F 60% 29.71 in 10.0 mi SE 5.8 mph - N/A   Overcast
3:55 AM 37.4 °F 30.8 °F 24.8 °F 60% 29.70 in 10.0 mi ESE 9.2 mph 16.1 mph N/A   Overcast
4:15 AM 37.4 °F 28.5 °F 24.8 °F 60% 29.65 in 10.0 mi ESE 15.0 mph 19.6 mph N/A   Overcast
4:35 AM 37.4 °F 31.4 °F 26.6 °F 65% 29.64 in 10.0 mi ESE 8.1 mph 18.4 mph N/A   Overcast
4:55 AM 37.4 °F 32.8 °F 28.4 °F 70% 29.67 in 10.0 mi SSE 5.8 mph - N/A   Overcast
5:15 AM 37.4 °F 32.8 °F 28.4 °F 70% 29.64 in 10.0 mi SE 5.8 mph 18.4 mph N/A   Overcast
5:35 AM 37.4 °F 32.1 °F 28.4 °F 70% 29.63 in 10.0 mi SE 6.9 mph - N/A   Overcast
5:55 AM 35.6 °F 27.5 °F 28.4 °F 75% 29.61 in 10.0 mi ESE 11.5 mph - N/A   Overcast
6:15 AM 35.6 °F 27.1 °F 28.4 °F 75% 29.57 in 10.0 mi ESE 12.7 mph - N/A   Overcast
6:35 AM 35.6 °F 28.0 °F 28.4 °F 75% 29.54 in 10.0 mi East 10.4 mph - N/A   Overcast
6:55 AM 35.6 °F 28.6 °F 30.2 °F 81% 29.53 in 10.0 mi ESE 9.2 mph 18.4 mph N/A   Overcast
7:15 AM 35.6 °F 30.7 °F 28.4 °F 75% 29.54 in 10.0 mi SE 5.8 mph - N/A   Overcast
7:35 AM 35.6 °F 28.0 °F 30.2 °F 81% 29.53 in 10.0 mi ESE 10.4 mph - N/A   Overcast
7:55 AM 35.6 °F 27.5 °F 30.2 °F 81% 29.52 in 10.0 mi ESE 11.5 mph - N/A   Overcast
8:15 AM 35.6 °F 27.1 °F 30.2 °F 81% 29.50 in 8.0 mi ESE 12.7 mph - N/A   Overcast
8:35 AM 35.6 °F 27.1 °F 30.2 °F 81% 29.48 in 9.0 mi ESE 12.7 mph 16.1 mph N/A   Overcast
8:55 AM 35.6 °F 28.0 °F 30.2 °F 81% 29.48 in 8.0 mi ESE 10.4 mph - N/A Thunderstorm Overcast
9:15 AM 35.6 °F 29.2 °F 30.2 °F 81% 29.47 in 2.5 mi ESE 8.1 mph - 0.02 in   Overcast
9:35 AM 35.6 °F 32.8 °F 32.0 °F 87% 29.47 in 3.0 mi SE 3.5 mph - 0.02 in   Overcast
9:55 AM 35.6 °F 32.8 °F 30.2 °F 81% 29.46 in 2.0 mi East 3.5 mph - 0.02 in   Overcast
10:15 AM 35.6 °F - 32.0 °F 87% 29.46 in 1.2 mi Calm Calm - N/A   Overcast
10:35 AM 35.6 °F - 33.8 °F 93% 29.48 in 1.2 mi Calm Calm - N/A   Overcast
10:55 AM 35.6 °F 32.8 °F 32.0 °F 87% 29.48 in 1.8 mi NNW 3.5 mph - 0.04 in   Overcast
11:15 AM 35.6 °F 32.8 °F 33.8 °F 93% 29.48 in 3.0 mi North 3.5 mph - 0.04 in   Overcast
11:35 AM 35.6 °F 29.9 °F 33.8 °F 93% 29.47 in 4.0 mi NE 6.9 mph - 0.07 in   Overcast
11:55 AM 35.6 °F 27.5 °F 33.8 °F 93% 29.43 in 3.0 mi East 11.5 mph - 0.08 in   Overcast
12:15 PM 35.6 °F - 33.8 °F 93% 29.45 in 6.0 mi Calm Calm - 0.01 in   Overcast
12:35 PM 35.6 °F 32.8 °F 33.8 °F 93% 29.43 in 8.0 mi NE 3.5 mph - 0.02 in   Overcast
12:55 PM 35.6 °F 30.7 °F 33.8 °F 93% 29.42 in 10.0 mi East 5.8 mph - 0.02 in   Overcast
1:15 PM 35.6 °F 29.9 °F 33.8 °F 93% 29.40 in 10.0 mi East 6.9 mph - N/A   Overcast
1:35 PM 35.6 °F 31.7 °F 33.8 °F 93% 29.39 in 10.0 mi East 4.6 mph - N/A   Overcast
1:55 PM 35.6 °F 32.8 °F 33.8 °F 93% 29.38 in 10.0 mi ENE 3.5 mph - N/A   Overcast
2:15 PM 35.6 °F 32.8 °F 33.8 °F 93% 29.39 in 3.0 mi ENE 3.5 mph - N/A   Overcast
2:55 PM 35.6 °F 32.8 °F 33.8 °F 93% 29.38 in 1.2 mi East 3.5 mph - N/A   Overcast
3:15 PM 37.4 °F - 33.8 °F 87% 29.38 in 1.5 mi Calm Calm - N/A   Overcast
3:35 PM 37.4 °F - 35.6 °F 93% 29.38 in 1.8 mi Calm Calm - N/A   Overcast
3:55 PM 37.4 °F - 33.8 °F 87% 29.39 in 3.0 mi Calm Calm - N/A   Overcast
4:15 PM 37.4 °F 32.8 °F 33.8 °F 87% 29.40 in 2.5 mi West 5.8 mph - N/A   Overcast
4:35 PM 35.6 °F 25.9 °F 33.8 °F 93% 29.42 in 1.5 mi West 16.1 mph - N/A   Overcast
4:55 PM 33.8 °F 22.5 °F 30.2 °F 87% 29.43 in 1.2 mi WNW 19.6 mph 23.0 mph N/A   Overcast
5:15 PM 33.8 °F 22.8 °F 30.2 °F 87% 29.45 in 1.8 mi WNW 18.4 mph 23.0 mph N/A   Overcast
5:35 PM 33.8 °F 22.8 °F 30.2 °F 87% 29.47 in 1.0 mi WNW 18.4 mph - N/A   Overcast
5:55 PM 32.0 °F 20.8 °F 30.2 °F 93% 29.48 in 1.0 mi WNW 17.3 mph 24.2 mph N/A   Overcast
6:15 PM 32.0 °F 19.8 °F 30.2 °F 93% 29.50 in 1.0 mi WNW 20.7 mph 26.5 mph N/A   Overcast
6:35 PM 32.0 °F 20.8 °F 30.2 °F 93% 29.52 in 1.8 mi NW 17.3 mph 23.0 mph N/A   Overcast
6:55 PM 32.0 °F 20.1 °F 30.2 °F 93% 29.54 in 4.0 mi NW 19.6 mph 26.5 mph N/A   Overcast
7:15 PM 33.8 °F 23.5 °F 30.2 °F 87% 29.56 in 3.0 mi NW 16.1 mph - N/A   Overcast
7:35 PM 32.0 °F 20.5 °F 30.2 °F 93% 29.58 in 5.0 mi NW 18.4 mph 27.6 mph N/A   Overcast
7:55 PM 32.0 °F 21.6 °F 30.2 °F 93% 29.59 in 5.0 mi NW 15.0 mph 31.1 mph N/A   Overcast
8:15 PM 32.0 °F 20.8 °F 30.2 °F 93% 29.61 in 1.2 mi NNW 17.3 mph 32.2 mph N/A   Overcast
8:35 PM 30.2 °F 18.5 °F 28.4 °F 93% 29.63 in 1.5 mi NNW 17.3 mph 31.1 mph N/A   Overcast
8:55 PM 30.2 °F 18.9 °F 26.6 °F 86% 29.65 in 2.5 mi NW 16.1 mph 24.2 mph N/A   Overcast
9:15 PM 30.2 °F 17.4 °F 28.4 °F 93% 29.67 in 4.0 mi NW 20.7 mph 27.6 mph N/A   Overcast
9:35 PM 30.2 °F 17.4 °F 26.6 °F 86% 29.69 in 4.0 mi NW 20.7 mph 32.2 mph N/A   Overcast
9:55 PM 30.2 °F 17.1 °F 24.8 °F 80% 29.71 in 10.0 mi NNW 21.9 mph 34.5 mph N/A   Mostly Cloudy
10:15 PM 30.2 °F 17.8 °F 26.6 °F 86% 29.73 in 10.0 mi NW 19.6 mph 26.5 mph N/A   Overcast
10:35 PM 28.4 °F 17.0 °F 26.6 °F 93% 29.75 in 2.5 mi NW 15.0 mph 26.5 mph N/A   Overcast
10:55 PM 28.4 °F 14.7 °F 24.8 °F 86% 29.76 in 8.0 mi NW 21.9 mph 32.2 mph N/A   Overcast
11:15 PM 28.4 °F 14.1 °F 24.8 °F 86% 29.77 in 3.0 mi NNW 24.2 mph 32.2 mph N/A   Overcast
11:35 PM 28.4 °F 14.1 °F 21.2 °F 74% 29.79 in 3.0 mi NNW 24.2 mph 34.5 mph N/A   Overcast
11:55 PM 28.4 °F 16.2 °F 21.2 °F 74% 29.80 in 9.0 mi NNW 17.3 mph 28.8 mph N/A   Overcast